N4LLZ-13 Weather Reports


Display with metric or nautical units.
time (UTC)temp
F
wind
direction
speed
MPH
gust
MPH
rain 1hr
in
rain 24hr
in
rain mn
in
humidity
%
barometer
mb
20260510173938 83 203 1.0 2.0 0.00 0.00 0.00 44 1015.0
20260510173438 82 307 1.0 1.0 0.00 0.00 0.00 46 1015.1
20260510172937 83 326 1.0 1.0 0.00 0.00 0.00 45 1015.1
20260510172436 84 246 1.0 2.0 0.00 0.00 0.00 44 1015.1
20260510171935 83 71 0.0 1.0 0.00 0.00 0.00 44 1015.1
20260510171434 83 59 1.0 2.0 0.00 0.00 0.00 44 1015.1
20260510170933 83 356 1.0 2.0 0.00 0.00 0.00 44 1015.2
20260510170433 82 301 1.0 2.0 0.00 0.00 0.00 45 1015.2
20260510165932 82 293 1.0 1.0 0.00 0.00 0.00 44 1015.2
20260510165431 82 160 1.0 1.0 0.00 0.00 0.00 45 1015.2
20260510164930 82 257 1.0 2.0 0.00 0.00 0.00 45 1015.2
20260510164429 82 158 1.0 2.0 0.00 0.00 0.00 44 1015.2
20260510163929 82 319 2.0 2.0 0.00 0.00 0.00 44 1015.3
20260510163428 81 152 0.0 1.0 0.00 0.00 0.00 46 1015.3
20260510162927 81 312 1.0 2.0 0.00 0.00 0.00 47 1015.4
20260510162426 81 296 0.0 1.0 0.00 0.00 0.00 49 1015.4
20260510161925 81 128 1.0 2.0 0.00 0.00 0.00 46 1015.5
20260510161424 81 179 0.0 1.0 0.00 0.00 0.00 48 1015.5
20260510160924 81 241 0.0 1.0 0.00 0.00 0.00 47 1015.5
20260510160423 81 87 1.0 2.0 0.00 0.00 0.00 46 1015.5
20260510155922 81 64 1.0 1.0 0.00 0.00 0.00 47 1015.7
20260510155421 80 62 1.0 2.0 0.00 0.00 0.00 49 1015.7
20260510154920 80 81 0.0 1.0 0.00 0.00 0.00 49 1015.8
20260510154420 80 350 1.0 2.0 0.00 0.00 0.00 47 1015.9
20260510153919 80 51 1.0 2.0 0.00 0.00 0.00 50 1015.9
20260510153418 80 35 1.0 2.0 0.00 0.00 0.00 51 1015.9
20260510152917 79 108 1.0 2.0 0.00 0.00 0.00 52 1015.8
20260510152416 79 359 1.0 1.0 0.00 0.00 0.00 54 1015.8
20260510151915 79 100 2.0 2.0 0.00 0.00 0.00 53 1015.7
20260510151414 79 89 1.0 2.0 0.00 0.00 0.00 54 1015.7
20260510150914 79 4 0.0 1.0 0.00 0.00 0.00 52 1015.7
20260510150413 78 20 1.0 2.0 0.00 0.00 0.00 53 1015.7
20260510145912 78 92 1.0 2.0 0.00 0.00 0.00 55 1015.7
20260510145411 78 300 0.0 1.0 0.00 0.00 0.00 53 1015.8
20260510144910 77 316 0.0 1.0 0.00 0.00 0.00 60 1015.8
20260510144410 77 272 1.0 1.0 0.00 0.00 0.00 60 1015.8
20260510143909 77 61 1.0 1.0 0.00 0.00 0.00 62 1015.7
20260510143408 77 107 2.0 3.0 0.00 0.00 0.00 61 1015.7
20260510142907 78 101 1.0 2.0 0.00 0.00 0.00 57 1015.7
20260510142406 77 67 1.0 1.0 0.00 0.00 0.00 60 1015.7
20260510141905 76 28 0.0 1.0 0.00 0.00 0.00 61 1015.7
20260510141404 76 68 1.0 1.0 0.00 0.00 0.00 62 1015.7
20260510140904 75 319 0.0 1.0 0.00 0.00 0.00 66 1015.7
20260510140403 75 264 1.0 1.0 0.00 0.00 0.00 66 1015.7
20260510135902 75 7 0.0 1.0 0.00 0.00 0.00 71 1015.8
20260510135401 75 339 1.0 1.0 0.00 0.00 0.00 70 1015.7
20260510134900 74 69 0.0 1.0 0.00 0.00 0.00 72 1015.7
20260510134359 74 107 1.0 1.0 0.00 0.00 0.00 72 1015.7
20260510133859 73 335 1.0 1.0 0.00 0.00 0.00 75 1015.7
20260510133358 74 267 1.0 1.0 0.00 0.00 0.00 73 1015.6
20260510132857 73 312 0.0 1.0 0.00 0.00 0.00 73 1015.6
20260510132356 72 286 1.0 1.0 0.00 0.00 0.00 74 1015.6
20260510131855 72 64 0.0 1.0 0.00 0.00 0.00 76 1015.5
20260510131354 72 292 1.0 1.0 0.00 0.00 0.00 78 1015.5
20260510130854 71 197 0.0 0.0 0.00 0.00 0.00 79 1015.4
20260510130353 70 317 0.0 1.0 0.00 0.00 0.00 83 1015.3
20260510125852 70 236 0.0 1.0 0.00 0.00 0.00 85 1015.3
20260510125351 69 302 1.0 1.0 0.00 0.00 0.00 85 1015.3
20260510124850 69 178 0.0 1.0 0.00 0.00 0.00 85 1015.3
20260510124349 68 271 1.0 1.0 0.00 0.00 0.00 87 1015.3
20260510123848 68 171 1.0 1.0 0.00 0.00 0.00 88 1015.3
20260510123348 68 292 0.0 1.0 0.00 0.00 0.00 89 1015.2
20260510122847 68 347 0.0 1.0 0.00 0.00 0.00 89 1015.1
20260510122347 67 207 0.0 1.0 0.00 0.00 0.00 90 1015.1
20260510121846 67 274 1.0 1.0 0.00 0.00 0.00 90 1015.1
20260510121345 66 310 1.0 1.0 0.00 0.00 0.00 92 1015.0
20260510120844 66 223 1.0 1.0 0.00 0.00 0.00 92 1015.0
20260510120343 66 201 1.0 1.0 0.00 0.00 0.00 93 1015.0
20260510115843 65 254 0.0 1.0 0.00 0.00 0.00 95 1015.0
20260510115342 64 285 1.0 1.0 0.00 0.00 0.00 96 1014.9
20260510114841 64 299 1.0 1.0 0.00 0.00 0.00 97 1014.9
20260510114340 63 270 1.0 1.0 0.00 0.00 0.00 99 1014.8
20260510113839 62 201 0.0 0.0 0.00 0.00 0.00 99 1014.7
20260510113339 62 323 0.0 0.0 0.00 0.00 0.00 99 1014.6
20260510112838 61 344 0.0 0.0 0.00 0.00 0.00 99 1014.5
20260510112337 61 1 0.0 1.0 0.00 0.00 0.00 99 1014.4
20260510111836 61 48 0.0 0.0 0.00 0.00 0.00 99 1014.4
20260510111335 61 337 0.0 0.0 0.00 0.00 0.00 99 1014.4
20260510110834 61 0 0.0 0.0 0.00 0.00 0.00 99 1014.3
20260510110334 61 0 0.0 0.0 0.00 0.00 0.00 99 1014.2
20260510105833 61 0 0.0 0.0 0.00 0.00 0.00 99 1014.1
20260510105332 61 0 0.0 0.0 0.00 0.00 0.00 99 1014.0
20260510104831 61 357 0.0 0.0 0.00 0.00 0.00 99 1013.9
20260510104330 61 334 0.0 1.0 0.00 0.00 0.00 99 1013.9
20260510103829 61 353 0.0 1.0 0.00 0.00 0.00 99 1013.9
20260510103329 61 289 0.0 0.0 0.00 0.00 0.00 99 1013.8
20260510102828 61 276 0.0 1.0 0.00 0.00 0.00 99 1013.7
20260510102327 61 295 1.0 1.0 0.00 0.00 0.00 99 1013.6
20260510101826 61 304 0.0 1.0 0.00 0.00 0.00 99 1013.5
20260510101325 61 299 0.0 0.0 0.00 0.00 0.00 99 1013.4
20260510100824 61 325 0.0 1.0 0.00 0.00 0.00 99 1013.4
20260510100324 61 337 0.0 1.0 0.00 0.00 0.00 99 1013.4
20260510095823 61 226 0.0 0.0 0.00 0.00 0.00 99 1013.3
20260510095322 61 307 1.0 1.0 0.00 0.00 0.00 99 1013.3
20260510094821 61 280 0.0 0.0 0.00 0.00 0.00 99 1013.2
20260510094320 61 261 0.0 0.0 0.00 0.00 0.00 99 1013.1
20260510093820 61 0 0.0 0.0 0.00 0.00 0.00 99 1013.1
20260510093319 61 336 0.0 0.0 0.00 0.00 0.00 99 1013.0
20260510092818 60 0 0.0 0.0 0.00 0.00 0.00 99 1013.0
20260510092317 60 0 0.0 0.0 0.00 0.00 0.00 99 1012.8
20260510091817 61 332 0.0 0.0 0.00 0.00 0.00 99 1012.7
20260510090314 61 293 0.0 0.0 0.00 0.00 0.00 99 1012.6
20260510085813 61 0 0.0 0.0 0.00 0.00 0.00 99 1012.6
20260510085313 61 281 0.0 0.0 0.00 0.00 0.00 99 1012.6
20260510084812 61 3 0.0 0.0 0.00 0.00 0.00 99 1012.5
20260510084311 61 356 0.0 1.0 0.00 0.00 0.00 99 1012.5
20260510083810 61 341 0.0 0.0 0.00 0.00 0.00 99 1012.6
20260510083309 61 316 0.0 0.0 0.00 0.00 0.00 99 1012.6
20260510082809 60 0 0.0 0.0 0.00 0.00 0.00 99 1012.6
20260510082308 60 0 0.0 0.0 0.00 0.00 0.00 99 1012.5
20260510081807 60 334 0.0 0.0 0.00 0.00 0.00 99 1012.4
20260510081306 60 227 0.0 0.0 0.00 0.00 0.00 99 1012.4
20260510080805 61 240 0.0 0.0 0.00 0.00 0.00 99 1012.4
20260510080304 61 1 0.0 0.0 0.00 0.00 0.00 99 1012.4
20260510075804 61 233 0.0 0.0 0.00 0.00 0.00 99 1012.4
20260510075306 61 346 0.0 0.0 0.00 0.00 0.00 99 1012.4
20260510074802 61 0 0.0 0.0 0.00 0.00 0.00 99 1012.3
20260510074302 61 340 0.0 0.0 0.00 0.00 0.00 99 1012.3
20260510073801 61 0 0.0 0.0 0.00 0.00 0.00 99 1012.3
20260510073300 61 282 0.0 0.0 0.00 0.00 0.00 99 1012.3
20260510072759 61 275 0.0 0.0 0.00 0.00 0.00 99 1012.2
20260510072258 60 1 0.0 0.0 0.00 0.00 0.00 99 1012.2
20260510071758 60 347 0.0 0.0 0.00 0.00 0.00 99 1012.2
20260510071257 60 309 0.0 0.0 0.00 0.00 0.00 99 1012.2
20260510070756 61 0 0.0 0.0 0.00 0.00 0.00 99 1012.3
20260510070255 61 0 0.0 0.0 0.00 0.00 0.00 99 1012.3
20260510065754 61 0 0.0 0.0 0.00 0.00 0.00 99 1012.3
20260510065253 61 248 0.0 0.0 0.00 0.00 0.00 99 1012.3
20260510064753 61 305 0.0 1.0 0.00 0.00 0.00 99 1012.3
20260510064252 61 0 0.0 0.0 0.00 0.00 0.00 99 1012.3
20260510063752 62 304 0.0 0.0 0.00 0.00 0.00 99 1012.2
20260510063251 62 0 0.0 0.0 0.00 0.00 0.00 99 1012.2
20260510062751 62 346 0.0 1.0 0.00 0.00 0.00 99 1012.2
20260510062250 62 324 0.0 0.0 0.00 0.00 0.00 99 1012.1
20260510061749 62 233 0.0 0.0 0.00 0.00 0.00 99 1012.2
20260510061248 62 293 0.0 0.0 0.00 0.00 0.00 100 1012.2
20260510060747 62 0 0.0 0.0 0.00 0.00 0.00 99 1012.3
20260510060246 62 342 0.0 1.0 0.00 0.00 0.00 100 1012.3
20260510055746 62 327 0.0 1.0 0.00 0.00 0.00 99 1012.4
20260510055245 62 193 0.0 1.0 0.00 0.00 0.00 99 1012.4
20260510054744 62 297 0.0 0.0 0.00 0.00 0.00 99 1012.4
20260510054243 62 336 0.0 1.0 0.00 0.00 0.00 99 1012.4
20260510053742 62 0 0.0 0.0 0.00 0.00 0.00 99 1012.5
20260510053242 62 333 0.0 0.0 0.00 0.00 0.00 99 1012.6
20260510052741 62 121 0.0 0.0 0.00 0.00 0.00 99 1012.6
20260510052240 62 329 0.0 1.0 0.00 0.00 0.00 99 1012.8
20260510051739 62 283 0.0 1.0 0.00 0.00 0.00 99 1012.8
20260510051238 62 0 0.0 0.0 0.00 0.00 0.00 99 1012.7
20260510050737 62 239 0.0 0.0 0.00 0.00 0.00 99 1012.7
20260510050237 62 0 0.0 0.0 0.00 0.00 0.00 99 1012.7
20260510045736 62 0 0.0 0.0 0.00 0.00 0.00 99 1012.8
20260510045235 62 0 0.0 0.0 0.00 0.00 0.00 99 1012.9
20260510044734 62 244 0.0 0.0 0.00 0.00 0.00 99 1012.9
20260510044233 62 232 0.0 1.0 0.00 0.00 0.00 99 1012.8
20260510043733 62 266 0.0 0.0 0.00 0.00 0.00 99 1012.9
20260510043232 62 338 0.0 1.0 0.00 0.00 0.00 99 1012.8
20260510042731 62 226 0.0 0.0 0.00 0.00 0.00 99 1012.7
20260510042230 62 234 0.0 0.0 0.00 0.00 0.00 99 1012.8
20260510041729 62 262 0.0 0.0 0.00 0.00 0.00 99 1012.7
20260510041228 62 0 0.0 0.0 0.00 0.00 0.00 99 1012.8
20260510040728 62 297 0.0 0.0 0.00 0.00 0.00 99 1012.8
20260510040227 62 193 0.0 0.0 0.00 0.00 0.00 99 1012.7
20260510035726 63 346 0.0 0.0 0.00 0.00 0.00 99 1012.6
20260510035225 63 260 0.0 0.0 0.00 0.00 0.00 100 1012.5
20260510034724 62 309 0.0 0.0 0.00 0.00 0.00 100 1012.6
20260510034223 62 332 0.0 0.0 0.00 0.00 0.00 99 1012.6
20260510033723 63 218 0.0 0.0 0.00 0.00 0.00 99 1012.5
20260510033222 63 0 0.0 0.0 0.00 0.00 0.00 99 1012.5
20260510032721 63 276 0.0 0.0 0.00 0.00 0.00 99 1012.5
20260510032220 63 262 0.0 0.0 0.00 0.00 0.00 99 1012.4
20260510031719 63 323 0.0 1.0 0.00 0.00 0.00 99 1012.4
20260510031218 63 287 0.0 0.0 0.00 0.00 0.00 99 1012.4
20260510030718 63 293 0.0 0.0 0.00 0.00 0.00 99 1012.4
20260510030217 63 285 0.0 1.0 0.00 0.00 0.00 99 1012.3
20260510025716 63 293 0.0 1.0 0.00 0.00 0.00 99 1012.3
20260510025215 63 296 0.0 1.0 0.00 0.00 0.00 99 1012.3
20260510024714 63 261 0.0 0.0 0.00 0.00 0.00 98 1012.3
20260510024214 63 250 0.0 1.0 0.00 0.00 0.00 98 1012.2
20260510023713 63 273 0.0 0.0 0.00 0.00 0.00 98 1012.2
20260510023212 63 286 0.0 0.0 0.00 0.00 0.00 98 1012.3
20260510022711 63 322 0.0 0.0 0.00 0.00 0.00 98 1012.3
20260510022210 63 272 0.0 1.0 0.00 0.00 0.00 98 1012.2
20260510021709 63 252 0.0 1.0 0.00 0.00 0.00 97 1012.2
20260510021209 63 0 0.0 0.0 0.00 0.00 0.00 97 1012.1
20260510020708 64 274 0.0 0.0 0.00 0.00 0.00 97 1012.0
20260510020208 64 248 0.0 1.0 0.00 0.00 0.00 97 1012.3
20260510015707 64 281 0.0 0.0 0.00 0.00 0.00 96 1012.3
20260510015207 64 282 0.0 0.0 0.00 0.00 0.00 96 1012.1
20260510014706 64 244 0.0 0.0 0.00 0.00 0.00 96 1012.0
20260510014205 64 254 0.0 0.0 0.00 0.00 0.00 95 1011.9
20260510013704 64 357 0.0 0.0 0.00 0.00 0.00 95 1011.7
20260510013204 65 299 0.0 0.0 0.00 0.00 0.00 94 1011.7
20260510012703 65 0 0.0 0.0 0.00 0.00 0.00 94 1011.7
20260510012202 65 0 0.0 0.0 0.00 0.00 0.00 94 1011.6
20260510011701 65 272 0.0 0.0 0.00 0.00 0.00 94 1011.5
20260510011200 65 228 0.0 0.0 0.00 0.00 0.00 93 1011.5
20260510010700 65 185 0.0 0.0 0.00 0.00 0.00 93 1011.5
20260510010159 66 0 0.0 0.0 0.00 0.00 0.00 92 1011.5
20260510005658 66 0 0.0 0.0 0.00 0.00 0.00 92 1011.5
20260510005157 66 0 0.0 0.0 0.00 0.00 0.00 91 1011.3
20260510004656 66 0 0.0 0.0 0.00 0.00 0.00 90 1011.3
20260510004155 67 273 0.0 0.0 0.00 0.00 0.00 90 1011.2
20260510003654 67 0 0.0 0.0 0.00 0.00 0.00 90 1011.2
20260510003153 67 200 0.0 0.0 0.00 0.00 0.00 89 1011.2
20260510002653 68 0 0.0 0.0 0.00 0.00 0.00 88 1011.3
20260510002152 68 331 0.0 0.0 0.00 0.00 0.00 87 1011.3
20260510001651 68 0 0.0 0.0 0.00 0.00 0.00 86 1011.3
20260510001150 68 0 0.0 0.0 0.00 0.00 0.00 85 1011.3
20260510000649 69 287 0.0 0.0 0.00 0.00 0.00 85 1011.3
20260510000149 69 273 0.0 0.0 0.00 0.00 0.00 84 1011.2
20260509235648 70 287 0.0 0.0 0.00 0.00 0.00 83 1011.2
20260509235147 70 0 0.0 0.0 0.00 0.00 0.00 82 1011.1
20260509234646 70 0 0.0 0.0 0.00 0.00 0.00 82 1011.0
20260509234145 71 0 0.0 0.0 0.00 0.00 0.00 80 1010.9
20260509233644 71 196 0.0 0.0 0.00 0.00 0.00 79 1010.8
20260509233144 71 0 0.0 0.0 0.00 0.00 0.00 78 1010.6
20260509232643 72 286 0.0 0.0 0.00 0.00 0.00 78 1010.7
20260509232142 72 0 0.0 0.0 0.00 0.00 0.00 77 1010.8
20260509231641 72 131 0.0 0.0 0.00 0.00 0.00 76 1010.7
20260509231140 72 271 0.0 1.0 0.00 0.00 0.00 75 1010.5
20260509230640 72 35 0.0 1.0 0.00 0.00 0.00 76 1010.6
20260509230139 73 0 0.0 0.0 0.00 0.00 0.00 75 1010.6
20260509225638 73 279 0.0 1.0 0.00 0.00 0.00 74 1010.4
20260509225137 73 99 0.0 1.0 0.00 0.00 0.00 74 1010.3
20260509224636 73 256 1.0 1.0 0.00 0.00 0.00 73 1010.4
20260509224136 73 274 1.0 1.0 0.00 0.00 0.00 73 1010.4
20260509223636 74 266 0.0 1.0 0.00 0.00 0.00 73 1010.6
20260509223135 74 244 1.0 1.0 0.00 0.00 0.00 72 1010.6
20260509222634 73 282 1.0 1.0 0.00 0.00 0.00 73 1010.6
20260509222133 73 267 1.0 2.0 0.00 0.00 0.00 73 1010.7
20260509221633 74 270 1.0 3.0 0.00 0.00 0.00 72 1010.8
20260509221132 74 249 1.0 1.0 0.00 0.00 0.00 72 1010.7
20260509220631 73 289 1.0 1.0 0.00 0.00 0.00 72 1010.6
20260509220130 73 270 1.0 1.0 0.00 0.00 0.00 72 1010.5
20260509215629 73 269 1.0 1.0 0.00 0.00 0.00 72 1010.5
20260509215129 74 209 1.0 2.0 0.00 0.00 0.00 72 1010.5
20260509214628 74 217 1.0 2.0 0.00 0.00 0.00 71 1010.5
20260509214127 74 218 1.0 1.0 0.00 0.00 0.00 71 1010.4
20260509213626 73 315 0.0 1.0 0.00 0.00 0.00 71 1010.4
20260509213125 73 271 1.0 2.0 0.00 0.00 0.00 71 1010.5
20260509212625 73 204 1.0 2.0 0.00 0.00 0.00 72 1010.5
20260509212124 73 298 1.0 3.0 0.00 0.00 0.00 71 1010.4
20260509211623 74 266 1.0 2.0 0.00 0.00 0.00 71 1010.4
20260509211122 75 271 1.0 2.0 0.00 0.00 0.00 68 1010.4
20260509210621 75 281 2.0 3.0 0.00 0.00 0.00 67 1010.4
20260509210120 74 278 1.0 1.0 0.00 0.00 0.00 69 1010.3
20260509205620 74 302 1.0 2.0 0.00 0.00 0.00 70 1010.2
20260509205119 72 174 1.0 1.0 0.00 0.00 0.00 72 1010.2
20260509204618 72 271 1.0 2.0 0.00 0.00 0.00 73 1010.5
20260509204117 72 271 1.0 2.0 0.00 0.00 0.00 73 1010.4
20260509203616 72 268 1.0 1.0 0.00 0.00 0.00 71 1010.3
20260509203115 72 95 0.0 1.0 0.00 0.00 0.00 71 1010.3
20260509202615 72 94 0.0 1.0 0.00 0.00 0.00 72 1010.4
20260509202114 71 314 0.0 0.0 0.00 0.00 0.00 71 1010.4
20260509201613 71 235 0.0 1.0 0.00 0.00 0.00 71 1010.6
20260509201112 71 314 0.0 1.0 0.00 0.00 0.00 71 1010.5
20260509200612 71 227 0.0 1.0 0.00 0.00 0.00 71 1010.6
20260509200111 71 277 1.0 1.0 0.00 0.00 0.00 70 1010.7
20260509195610 71 239 0.0 1.0 0.00 0.00 0.00 71 1010.7
20260509195110 72 258 0.0 1.0 0.00 0.00 0.00 70 1010.7
20260509194609 72 277 1.0 1.0 0.00 0.00 0.00 69 1010.8
20260509194108 72 309 1.0 2.0 0.00 0.00 0.00 69 1010.8
20260509193607 73 295 1.0 2.0 0.00 0.00 0.00 68 1010.9
20260509193106 73 310 1.0 2.0 0.00 0.00 0.00 68 1010.9
20260509192605 73 270 1.0 2.0 0.00 0.00 0.00 67 1011.1
20260509192105 73 262 1.0 2.0 0.00 0.00 0.00 67 1011.1
20260509191604 73 255 1.0 1.0 0.00 0.00 0.00 67 1011.2
20260509191103 73 197 1.0 1.0 0.00 0.00 0.00 66 1011.1
20260509190602 73 273 1.0 2.0 0.00 0.00 0.00 65 1011.0
20260509185600 74 229 0.0 1.0 0.00 0.00 0.00 64 1011.1
20260509185100 75 173 1.0 3.0 0.00 0.00 0.00 63 1011.1
20260509184559 75 105 1.0 1.0 0.00 0.00 0.00 62 1011.1
20260509184058 75 221 1.0 2.0 0.00 0.00 0.00 61 1011.2
20260509183557 74 275 1.0 2.0 0.00 0.00 0.00 60 1011.2
20260509183056 74 271 2.0 3.0 0.00 0.00 0.00 61 1011.4
20260509182555 74 246 1.0 2.0 0.00 0.00 0.00 60 1011.4
20260509182055 74 250 1.0 4.0 0.00 0.00 0.00 60 1011.4
20260509181554 74 90 1.0 2.0 0.00 0.00 0.00 61 1011.5
20260509181053 74 120 1.0 2.0 0.00 0.00 0.00 60 1011.6
20260509180552 74 264 1.0 2.0 0.00 0.00 0.00 58 1011.8
20260509180051 74 269 1.0 3.0 0.00 0.00 0.00 60 1011.8
20260509175551 74 230 1.0 2.0 0.00 0.00 0.00 58 1011.7
20260509175050 74 51 1.0 2.0 0.00 0.00 0.00 58 1011.8
20260509174549 73 180 1.0 2.0 0.00 0.00 0.00 57 1011.8